Total_Precipitation_Accumulation
0.12 0.10 0.09 0.06 0.09 0.11 0.08 0.04 0.04 0.03 0.01 0.00 0.01 0.01 0.01 0.00 0.01 0.02 0.08 0.11 0.27 0.30 0.21 0.21 0.21 0.20 0.18 0.15 0.13 0.12 0.18 0.20 0.27
0.11 0.10 0.05 0.03 0.06 0.06 0.05 0.04 0.02 0.00 0.00 0.01 0.01 0.01 0.01 0.00 0.00 0.01 0.01 0.07 0.18 0.15 0.11 0.10 0.11 0.14 0.19 0.22 0.24 0.25 0.18 0.16 0.22
0.08 0.06 0.05 0.05 0.06 0.06 0.04 0.02 0.01 0.01 0.01 0.01 0.01 0.00 0.00 0.00 0.00 0.00 0.00 0.08 0.05 0.05 0.05 0.05 0.07 0.08 0.08 0.10 0.14 0.16 0.17 0.15 0.14
0.10 0.11 0.07 0.07 0.07 0.08 0.05 0.03 0.02 0.01 0.01 0.01 0.00 0.00 0.00 0.00 0.00 0.00 0.00 0.03 0.02 0.02 0.05 0.09 0.07 0.07 0.08 0.07 0.08 0.09 0.10 0.12 0.13
0.22 0.14 0.04 0.07 0.06 0.05 0.03 0.02 0.02 0.01 0.01 0.01 0.00 0.00 0.00 0.00 0.00 0.00 0.00 0.02 0.02 0.02 0.10 0.10 0.10 0.14 0.15 0.14 0.13 0.12 0.11 0.13 0.13
0.30 0.15 0.02 0.04 0.04 0.00 0.01 0.01 0.01 0.01 0.00 0.00 0.00 0.00 0.00 0.00 0.00 0.00 0.00 0.00 0.01 0.03 0.07 0.09 0.10 0.11 0.13 0.15 0.13 0.13 0.13 0.12 0.12
0.19 0.19 0.03 0.03 0.02 0.00 0.00 0.00 0.00 0.00 0.00 0.00 0.00 0.00 0.00 0.00 0.00 0.00 0.00 0.01 0.01 0.02 0.04 0.05 0.05 0.06 0.06 0.07 0.07 0.08 0.09 0.11 0.12
0.22 0.25 0.15 0.09 0.03 0.02 0.00 0.00 0.00 0.00 0.00 0.00 0.00 0.00 0.00 0.00 0.00 0.00 0.00 0.00 0.00 0.01 0.02 0.03 0.03 0.04 0.04 0.03 0.04 0.07 0.09 0.11 0.15
0.02 0.05 0.07 0.04 0.02 0.00 0.00 0.00 0.00 0.00 0.00 0.00 0.00 0.00 0.00 0.00 0.00 0.00 0.00 0.00 0.01 0.01 0.01 0.02 0.03 0.04 0.04 0.05 0.10 0.15 0.15 0.15 0.15
0.01 0.03 0.06 0.02 0.00 0.00 0.00 0.00 0.00 0.00 0.00 0.00 0.00 0.00 0.00 0.00 0.00 0.00 0.00 0.00 0.00 0.01 0.01 0.01 0.02 0.05 0.07 0.09 0.11 0.12 0.11 0.11 0.12
0.07 0.03 0.01 0.01 0.00 0.00 0.00 0.00 0.00 0.00 0.00 0.00 0.00 0.00 0.00 0.00 0.00 0.00 0.00 0.00 0.00 0.00 0.00 0.01 0.01 0.01 0.03 0.08 0.12 0.12 0.11 0.09 0.09
0.16 0.08 0.02 0.00 0.00 0.00 0.00 0.00 0.00 0.00 0.00 0.00 0.00 0.00 0.00 0.00 0.00 0.00 0.00 0.00 0.00 0.00 0.00 0.00 0.01 0.02 0.02 0.06 0.08 0.10 0.11 0.12 0.12
0.60 0.42 0.21 0.08 0.03 0.01 0.00 0.00 0.00 0.00 0.00 0.00 0.00 0.00 0.00 0.00 0.00 0.00 0.00 0.00 0.00 0.00 0.00 0.00 0.01 0.02 0.02 0.03 0.05 0.09 0.11 0.11 0.12
0.35 0.30 0.21 0.14 0.07 0.03 0.02 0.00 0.00 0.00 0.00 0.00 0.00 0.00 0.00 0.00 0.00 0.00 0.00 0.00 0.00 0.00 0.00 0.00 0.00 0.00 0.01 0.02 0.06 0.13 0.21 0.23 0.17
0.51 0.30 0.16 0.11 0.07 0.04 0.01 0.00 0.00 0.00 0.00 0.00 0.00 0.00 0.00 0.00 0.00 0.00 0.00 0.00 0.00 0.00 0.00 0.00 0.00 0.00 0.01 0.02 0.05 0.27 0.55 0.48 0.32
0.46 0.47 0.31 0.16 0.07 0.04 0.03 0.01 0.00 0.00 0.00 0.00 0.00 0.00 0.00 0.00 0.00 0.00 0.00 0.00 0.00 0.00 0.00 0.00 0.00 0.00 0.00 0.01 0.06 0.21 0.66 1.14 0.84
0.65 0.35 0.35 0.27 0.13 0.08 0.08 0.03 0.00 0.00 0.00 0.01 0.02 0.02 0.00 0.00 0.00 0.00 0.00 0.00 0.00 0.00 0.00 0.00 0.00 0.00 0.01 0.01 0.02 0.06 0.20 0.46 0.96
0.73 0.71 0.32 0.24 0.27 0.22 0.14 0.14 0.11 0.09 0.04 0.02 0.04 0.07 0.04 0.02 0.00 0.00 0.00 0.00 0.00 0.00 0.00 0.00 0.00 0.01 0.01 0.01 0.01 0.02 0.06 0.12 0.27
1.26 1.12 0.96 0.55 0.36 0.38 0.39 0.33 0.27 0.20 0.17 0.09 0.04 0.05 0.06 0.11 0.07 0.02 0.02 0.01 0.01 0.00 0.00 0.00 0.01 0.02 0.03 0.05 0.08 0.12 0.16 0.20 0.26
1.71 1.72 1.74 1.68 1.37 0.98 0.77 0.73 0.56 0.41 0.32 0.22 0.19 0.22 0.16 0.13 0.19 0.15 0.05 0.05 0.03 0.02 0.01 0.01 0.02 0.03 0.04 0.04 0.09 0.16 0.21 0.34 0.47